Regional Weather Roundup
Issued by NWS Newport/Morehead, NC

Current Version | Previous Version | Graphics & Text | Print | Product List | Glossary Off
Versions: 1 2 3 4 5 6 7 8 9 10 11 12 13 14 15 16 17 18 19 20 21 22 23 24 25 26 27 28 29 30 31 32 33 34 35 36 37 38 39 40 41 42 43 44 45 46 47 48 49 50

000
ASUS42 KMHX 300410
RWRMHX
WEATHER ROUNDUP FOR EASTERN NORTH CAROLINA
NATIONAL WEATHER SERVICE NEWPORT/MOREHEAD CITY NC
1200 AM EDT TUE SEP 30 2014

NOTE: "FAIR" INDICATES FEW OR NO CLOUDS BELOW 12,000 FEET
WITH NO SIGNIFICANT WEATHER AND/OR OBSTRUCTIONS TO VISIBILITY

NCZ015>017-031-032-045>047-102-103-300500-
NORTH COAST

CITY           SKY/WX    TMP DP  RH WIND       PRES   REMARKS
EDENTON        CLOUDY    65  62  89 CALM      29.96R
ELIZABETH CITY CLOUDY    66  63  90 NW7       29.95S
KITTY HAWK     CLOUDY    69  65  86 CALM      29.92S
MANTEO         CLOUDY    69  65  88 N3        29.93S

$$

NCZ045>047-081-094-103-104-300500-
CENTRAL COAST

CITY           SKY/WX    TMP DP  RH WIND       PRES   REMARKS
FRISCO         LGT RAIN  67  67 100 N5        29.92F
SWANQUARTER      N/A     68 N/A N/A N1        29.91S

$$

NCZ095-097-098-100-101-300500-
SOUTHERN COAST

CITY           SKY/WX    TMP DP  RH WIND       PRES   REMARKS
BEAUFORT       CLOUDY    69  66  90 N9        29.93F
CEDAR ISLAND     N/A     72 N/A N/A NW10      29.97S
JACKSONVILLE   CLOUDY    67  65  93 N3        29.94S
NEWPORT        NOT AVBL
PINEY ISLAND   LGT RAIN  73  66  78 N7        29.94S
WILMINGTON     CLOUDY    66  65  96 N3        29.94F


$$

NCZ011>013-027>030-043-044-078>080-089-090>093-098-300500-
COASTAL PLAIN

CITY           SKY/WX    TMP DP  RH WIND       PRES   REMARKS
AHOSKIE        DRIZZLE   62  61  97 CALM      29.96F
CLINTON        MOCLDY    64  64  99 CALM      29.96S
ELIZABETHTOWN  MOCLDY    64  64 100 CALM      29.95F FOG
GOLDSBORO      MOCLDY    64  63  98 CALM      29.94F
GREENVILLE     LGT RAIN  64  64 100 CALM      29.98S
HAVELOCK       CLOUDY    69  67  93 N10       29.95F
KENANSVILLE    CLOUDY    64  63  94 CALM      29.96F
KINSTON        DRIZZLE   65  64  98 CALM      29.96F
NEW BERN       CLOUDY    69  65  86 CALM      29.96S
RICHLANDS      CLOUDY    66  63  88 CALM      29.94F
ROANOKE RAPIDS NOT AVBL
ROCKY MOUNT    FOG       62  61  96 CALM      29.96F VSB 1/2
WASHINGTON     CLOUDY    64  63  96 CALM      29.96F
WHITEVILLE     PTCLDY    64  62  96 CALM      29.94F FOG

$$

AMZ130-135-150-152-154-156-158-170-250-252-270-ANZ085-086-088-633-658-670-300500-
MARINE OBSERVATIONS

STATION/POSITION TIME  TEMP    WIND        PRES    WAVE   SWELL
                       AIR SEA DIR/SP/G            HT/PER HT/PER
                 (UTC) (F)     (DEG/KT/KT) (MB)    (FT/S) (FT/S)
CHESAPEAKE LIGHT 0300   71     340/  8/  8 1015.1
BUOY 44014       0400   71 71  350/ 10/ 10 1012.8    2/ 9   2/ 9
DUCK             0400   71 73  360/  7/  8 1012.9
2E DUCK          0400                        N/A     2/ 8
OREGON INLET     0400   71 73   10/  6/  9 1013.1
BUOY 44095       0400      73                N/A     3/ 8
20E OREGON INLET NOT AVBL
HATTERAS CG      0400   71 75  360/  9/ 10 1013.7
DIAMOND BUOY     0400   73     360/ 12/ 14 1012.5    3/ 7   2/ 7
CAPE LOOKOUT     0300   71     360/  8/  9 1013.4
BEAUFORT LAB     0400   70 75  360/ 10/ 12 1013.3
30 SE NEW RIVER  0400   73 80   20/ 12/ 17 1012.7    3/ 8   2/ 8
5 SE WRIGHTSVILL 0300   66 76   40/ 12/ 14   N/A
BUOY 41002       0326   77 81  230/  8/ 10 1012.7    3/ 8   3/ 8
BUOY 41004       0400   73 81  100/ 16/ 17 1011.3    5/ 6   2/11

$$


USA.gov is the U.S. government's official web portal to all federal, state and local government web resources and services.